Regional Weather Roundup
Issued by NWS

Home | Current Version | Previous Version | Text Only | Print | Product List | Glossary On
Versions: 1 2 3 4 5 6 7 8 9 10 11 12 13 14 15 16 17 18 19 20 21 22 23 24 25 26 27 28 29 30 31 32 33 34 35 36 37 38 39 40 41 42 43 44 45 46 47 48 49 50
000
ASUS43 KMKX 301321
RWRWI

WISCONSIN REGIONAL WEATHER ROUNDUP
NATIONAL WEATHER SERVICE MILWAUKEE/SULLIVAN WI
800 AM CDT SUN APR 30 2017

NOTE: "FAIR" INDICATES FEW OR NO CLOUDS BELOW 12,000 FEET WITH NO
SIGNIFICANT WEATHER AND/OR OBSTRUCTIONS TO VISIBILITY.

WIZ001-002-006>008-014>016-023>028-301400-
NORTHWEST WISCONSIN

CITY           SKY/WX    TMP DP  RH WIND       PRES   REMARKS
SUPERIOR ARPT  CLOUDY    38  29  70 NE13      30.16F WCI  30
ASHLAND        CLOUDY    38  27  64 NE7       30.16F WCI  33
HAYWARD        CLOUDY    40  22  48 NE8       30.10F WCI  34
SIREN          CLOUDY    40  22  49 NE9       30.08F WCI  33
CUMBERLAND     CLOUDY    39  23  52 NE12      30.05F WCI  32
RICE LAKE      CLOUDY    41  23  47 NE12      30.07F
CHETEK         NOT AVBL
LADYSMITH      CLOUDY    41  25  52 NE12      30.07F
EAU CLAIRE     CLOUDY    43  26  51 NE16G24   29.99F
MENOMONIE      CLOUDY    43  25  48 NE12      30.01F
NEW RICHMOND   CLOUDY    41  23  48 NE9       30.02F
OSCEOLA        CLOUDY    42  24  48 NE9G16    30.06F
$$

WIZ003>005-009-010-017-018-301400-
NORTH CENTRAL WISCONSIN

CITY           SKY/WX    TMP DP  RH WIND       PRES   REMARKS
MANITOWISH WTR NOT AVBL
ARBOR VITAE    CLOUDY    42  26  54 E9G17     30.08F
WOODRUFF       CLOUDY    42  26  54 E9G17     30.08F
RHINELANDER    PTSUNNY   41  27  57 E15       30.09F
EAGLE RIVER    CLOUDY    40  25  54 E12G18    30.09F WCI  34
LAND O LAKES   CLOUDY    41  26  55 E7        30.12F
PHILLIPS       CLOUDY    39  24  56 NE9       30.07F WCI  32
TOMAHAWK       CLOUDY    38  26  59 E12G18    30.06F WCI  31
MEDFORD        CLOUDY    38  27  62 E14       30.02F WCI  30
MERRILL        CLOUDY    39  27  61 E7        30.05F WCI  34
$$

WIZ029-030-035-036-043>047-301400-
CENTRAL WISCONSIN

CITY           SKY/WX    TMP DP  RH WIND       PRES   REMARKS
WAUSAU         CLOUDY    40  29  64 E17G26    30.01F WCI  31
MOSINEE        CLOUDY    39  30  70 E21G26    30.01F WCI  29
MARSHFIELD     CLOUDY    40  29  64 E17G29    29.99F WCI  31
STEVENS POINT  CLOUDY    38  30  73 E17G24    30.01F WCI  28
WAUPACA        CLOUDY    41  37  85 NE9G20    30.03F FOG
WAUTOMA        CLOUDY    39  37  92 NE17G25   29.98F FOG     WCI  30
WISC RAPIDS    CLOUDY    40  32  73 E16G28    29.99F WCI  31
CAMP DOUGLAS   CLOUDY    41  32  70 NE13G24   29.95F
$$

WIZ011>013-019>022-031-037>040-048>050-301400-
NORTHEAST WISCONSIN

CITY           SKY/WX    TMP DP  RH WIND       PRES   REMARKS
ANTIGO         CLOUDY    38  30  73 E20       30.05F WCI  28
SHAWANO        CLOUDY    42  35  75 NE20G26   30.07F
OCONTO         CLOUDY    40  35  83 E12G20    30.11F WCI  33
STURGEON BAY   LGT RAIN  37  36  93 E15G25    30.09F FOG     WCI  28
GREEN BAY      CLOUDY    41  40  96 NE18G26   30.04F FOG
MANITOWOC      CLOUDY    39  37  92 NE17G24   30.03F WCI  30
APPLETON       CLOUDY    39  37  93 NE17G25   30.01F FOG     WCI  30
CLINTONVILLE   CLOUDY    39  34  81 NE14G23   30.05F WCI  31
OSHKOSH        CLOUDY    40  37  89 NE20G29   29.99F WCI  30
$$

WIZ032>034-041-042-053>061-301400-
SOUTHWEST WISCONSIN

CITY           SKY/WX    TMP DP  RH WIND       PRES   REMARKS
LA CROSSE      CLOUDY    44  32  62 E13G20    29.95F
SPARTA         CLOUDY    41  33  72 NE14G20   29.96F
VIROQUA        CLOUDY    39  35  86 E16G23    29.92F WCI  30
BOSCOBEL       CLOUDY    42  38  85 E9        29.92F FOG
PRAIRIE DU CHI CLOUDY    41  35  80 NE13G22   29.91R
PLATTEVILLE    CLOUDY    40  40 100 NE20G25   29.88R WCI  31
$$

WIZ056-057-062-063-064-067-068-301400-
SOUTH CENTRAL WISCONSIN

CITY           SKY/WX    TMP DP  RH WIND       PRES   REMARKS
REEDSBURG      CLOUDY    38  38 100 NE16      29.92F FOG     WCI  29
BARABOO/DELLS  CLOUDY    38  37  97 E15G23    29.93F FOG     WCI  30
LONE ROCK      CLOUDY    41  37  86 NE16G24   29.92F FOG
MINERAL POINT  CLOUDY    41  41 100 NE16G24   29.89R FOG
MADISON        DRIZZLE   40  38  93 E21G26    29.89F FOG     WCI  30
MIDDLETON      CLOUDY    41  41  99 E14       29.91F
WATERTOWN      CLOUDY    40  40 100 E17G25    29.90F FOG     WCI  31
MONROE         CLOUDY    39  37  93 NE22      29.85F WCI  29
JANESVILLE     NOT AVBL
$$

WIZ051-052-058>065-066-070>072-301400-
SOUTHEAST WISCONSIN

CITY           SKY/WX    TMP DP  RH WIND       PRES   REMARKS
MILWAUKEE      LGT RAIN  42  41  96 NE16      29.95F VSB 3/4
WAUKESHA       LGT RAIN  37  37 100 NE17G23   29.96F VSB 1   WCI  28
MILWAUKEE/TIMM RAIN      39  37  93 NE13G21   29.98F WCI  32
RACINE         CLOUDY    41  39  93 NE16      29.94F FOG
KENOSHA        LGT RAIN  41  40  96 NE21      29.88F FOG
FOND DU LAC    CLOUDY    40  37  89 E13       29.98F FOG     WCI  32
SHEBOYGAN      LGT RAIN  40  38  93 NE21G31   30.00F FOG     WCI  30
WEST BEND      LGT RAIN  37  37 100 E17G30    29.96F WCI  28
JUNEAU         CLOUDY    39  37  95 NE16G28   29.94F FOG     WCI  30
$$

LSZ147-162-301400-
LAKE SUPERIOR

STATION/POSITION TIME  TEMP    WIND        PRES    WAVE
                       AIR SEA DIR/SP/G            HT/PER
                 (UTC) (F)     (DEG/KT/KT) (MB)    (FT/S)
DEVILS ISLAND    1300   38      50/ 20/ 22 1022.3F
SAXON HARBOR     1240   38      50/  6/  7 1020.7F
$$

LMZ867-665-643>646-301400-
LAKE MICHIGAN

STATION/POSITION TIME  TEMP    WIND        PRES    WAVE
                       AIR SEA DIR/SP/G            HT/PER
                 (UTC) (F)     (DEG/KT/KT) (MB)    (FT/S)
CHAMBERS ISLAND  1240   40      50/ 12/ 20 1020.3S
N MID LAKE BUOY  1250   38 37   80/ 21/ 27 1021.9F   3/ 4
NORTHPORT PIER   1240   40      70/ 19/ 24 1021.0F
SISTER BAY       1206   41     110/ 12/ 22   N/A
KEWAUNEE LAKESHO 1254   39      50/ 13/ 20 1018.1F
SHEBOYGAN LAKESH 1300   40      40/ 20/ 22 1016.4F
PORT WASHINGTON  1300   41      50/ 17/ 23 1016.3
MILWAUKEE LAKESH 1300   40      40/ 19/ 20   N/A
S MID LAKE BUOY  1250   41 40   60/ 16/ 19 1013.9F   4/ 5
KENOSHA   LAKESH 1300   42      60/ 20/ 24 1012.5
$$

TC  - TEMPERATURE IN CELSIUS
VSB - VISIBILITY IN STATUTE MILES
WCI - WIND CHILL INDEX
HX  - HEAT INDEX





USA.gov is the U.S. government's official web portal to all federal, state and local government web resources and services.